Terug naar catalogus

COSMOS 1729

ActiefMilitairHEO
NORAD 16527·PAYLOAD·🇷🇺 Russia

Gelanceerd Feb 1, 1986 vanaf Plesetsk Cosmodrome

Loading…

Volgende Passages (komende 24 uur)

TLE

VersSource: Space-Track

Epoch: Sep 14, 2026, 12:18 UTC

1 16527U 86011A   26257.51250190  .00000022  00000-0  00000-0 0  9996
2 16527  70.9459 185.8458 4586938  37.3326  86.5597  2.00604545297546

Volg COSMOS 1729 in realtime met AllMySat

Download on the App Store